(284790) = 2008 YW75

Discovered at Mount Lemmon on 2008-12-30 by Mt. Lemmon Survey.

Orbit

Orbit type: Main Belt

Note: WebGL enabled browser required.

epoch2023-02-25.0
epoch JD2460000.5
perihelion date2020-11-24.24096
perihelion JD2459177.74096
argument of perihelion (°)257.33670
ascending node (°)99.73879
inclination (°)14.78235
eccentricity0.1177279
perihelion distance (AU)2.3691482
Tisserand w.r.t. Jupiter3.3
ΔV w.r.t. Earth (km/sec)10.7
semimajor axis (AU)2.6852806
mean anomaly (°)184.28585
mean daily motion (°/day)0.22398520
aphelion distance (AU)3.001
period (years)4.4
P-vector [x]0.96687012
P-vector [y]0.04720138
P-vector [z]-0.25086690
Q-vector [x]0.04386893
Q-vector [y]0.93741028
Q-vector [z]0.34545258
absolute magnitude16.1
phase slope0.15
uncertainty0
referenceMPO 745323
observations used359
oppositions14
arc length (days)7110
first opposition used2003
last opposition used2023
residual rms (arc-secs)0.68
perturbers coarse indicatorM-v
perturbers precise indicator003Ek
first observation date used2003-11-23.0
last observation date used2023-05-12.0
computer nameMPCLINUX
JD of orbit computation2456731.466138
perihelion JD uncertainty (days)1.6726E-04
argument of perihelion uncertainty (°)4.4838E-05
ascending node uncertainty (°)2.4562E-05
inclination uncertainty (°)8.5611E-06
eccentricity uncertainty 6.2925E-08
perihelion distance uncertainty (AU)1.7091E-07
Minimum Orbit Intersection Distances (in AU)
for orbit epoch: 2460000.5, reference: E2023-JC8
Mercury1.99281
Venus1.66113
Earth1.41268
Mars1.05787
Jupiter2.43987
Saturn6.30597
Uranus15.5355
Neptune27.4129

Observations

357 total observations over interval: 2003 11 23.27384 – 2023 05 12.260659
These data are available for download (format description).

Date (UT) J2000 RA J2000 Dec Magn Location Ref
2003 11 23.27384 03 49 55.59 +03 13 31.4 19.0   644 – Palomar Mountain/NEAT MPS 280407
2003 11 23.29453 03 49 54.31 +03 13 33.9 19.6   644 – Palomar Mountain/NEAT MPS 280407
2003 11 23.30243 03 49 53.83 +03 13 35.3 19.2 R 699 – Lowell Observatory-LONEOS MPS 280407
2003 11 23.31562 03 49 53.04 +03 13 37.8   699 – Lowell Observatory-LONEOS MPS 280407
2003 11 23.31796 03 49 52.84 +03 13 36.9 19.9   644 – Palomar Mountain/NEAT MPS 280407
2003 11 23.32886 03 49 52.27 +03 13 38.9   699 – Lowell Observatory-LONEOS MPS 280407
2003 11 23.34205 03 49 51.39 +03 13 42.3   699 – Lowell Observatory-LONEOS MPS 280407
2005 02 04.391447 10 59 52.417 +24 23 07.85 20.74 V 645 – Apache Point-Sloan Digital Sky Survey MPS 390539
2005 02 04.394919 10 59 52.281 +24 23 09.75 21.64   645 – Apache Point-Sloan Digital Sky Survey MPS 390539
2006 04 25.43668 16 14 26.49 -04 51 09.3   691 – Steward Observatory, Kitt Peak-Spacewatch MPS 280407
2006 04 25.45396 16 14 25.82 -04 51 07.3   691 – Steward Observatory, Kitt Peak-Spacewatch MPS 280407
2006 04 25.47132 16 14 25.14 -04 51 04.8   691 – Steward Observatory, Kitt Peak-Spacewatch MPS 280407
2006 05 30.28282 15 44 43.26 -04 37 48.9 19.8 V G96 – Mt. Lemmon Survey MPS 280407
2006 05 30.29179 15 44 42.75 -04 37 49.5 19.8 V G96 – Mt. Lemmon Survey MPS 280407
2006 05 30.30079 15 44 42.25 -04 37 50.8 19.8 V G96 – Mt. Lemmon Survey MPS 280407
2006 05 30.30976 15 44 41.74 -04 37 51.7 19.8 V G96 – Mt. Lemmon Survey MPS 280407
2008 10 24.45608 08 20 23.13 +19 57 12.7 21.2 V G96 – Mt. Lemmon Survey MPS 280407
2008 10 24.46044 08 20 23.38 +19 57 12.8 21.2 V G96 – Mt. Lemmon Survey MPS 280407
2008 10 24.46918 08 20 23.85 +19 57 14.5 20.9 V G96 – Mt. Lemmon Survey MPS 280407
2008 12 07.37079 08 38 45.24 +22 18 10.0 20.5 V G96 – Mt. Lemmon Survey MPS 280407
2008 12 07.37524 08 38 45.20 +22 18 11.9 20.4 V G96 – Mt. Lemmon Survey MPS 280407
2008 12 07.37965 08 38 45.16 +22 18 13.4 20.7 V G96 – Mt. Lemmon Survey MPS 280407
2008 12 07.38413 08 38 45.13 +22 18 15.3 20.7 V G96 – Mt. Lemmon Survey MPS 280407
2008 12 30.26040 08 28 20.24 +25 06 13.9 20.0 V G96 – Mt. Lemmon Survey MPS 271876
2008 12 30.26112 08 28 20.17 +25 06 14.5 20.2 V G96 – Mt. Lemmon Survey MPS 271876
2008 12 30.26904 08 28 19.81 +25 06 18.2 20.1 V G96 – Mt. Lemmon Survey MPS 271876
2008 12 30.26979 08 28 19.77 +25 06 18.7 20.1 V G96 – Mt. Lemmon Survey MPS 271876
2008 12 30.27554 08 28 19.56 +25 06 22.5 19.7 V G96 – Mt. Lemmon Survey MPS 271876
2008 12 30.27630 08 28 19.52 +25 06 22.8 19.7 V G96 – Mt. Lemmon Survey MPS 271876
2008 12 30.28205 08 28 19.23 +25 06 24.9 19.9 V G96 – Mt. Lemmon Survey MPS 271876
2008 12 30.28276 08 28 19.20 +25 06 24.9 20.0 V G96 – Mt. Lemmon Survey MPS 271876
2008 12 31.32443 08 27 31.53 +25 15 02.1   704 – Lincoln Laboratory ETS, New Mexico MPS 407551
2008 12 31.35015 08 27 30.24 +25 15 13.8   704 – Lincoln Laboratory ETS, New Mexico MPS 407551
2008 12 31.37557 08 27 29.05 +25 15 25.5   704 – Lincoln Laboratory ETS, New Mexico MPS 407551
2009 01 01.34756 08 26 43.37 +25 23 26.8 20.1 V 691 – Steward Observatory, Kitt Peak-Spacewatch MPS 271876
2009 01 01.36572 08 26 42.46 +25 23 35.9 20.0 V 691 – Steward Observatory, Kitt Peak-Spacewatch MPS 271876
2009 01 01.38414 08 26 41.57 +25 23 45.0 20.1 V 691 – Steward Observatory, Kitt Peak-Spacewatch MPS 271876
2009 01 16.27822 08 13 05.42 +27 24 35.0   704 – Lincoln Laboratory ETS, New Mexico MPS 407551
2009 01 16.29093 08 13 04.64 +27 24 40.8   704 – Lincoln Laboratory ETS, New Mexico MPS 407551
2009 01 16.30387 08 13 03.80 +27 24 46.8   704 – Lincoln Laboratory ETS, New Mexico MPS 407551
2009 01 16.32941 08 13 02.27 +27 24 59.8   704 – Lincoln Laboratory ETS, New Mexico MPS 407551
2009 01 26.19834 08 03 08.67 +28 35 37.9 20.1 V G96 – Mt. Lemmon Survey MPS 280407
2009 01 26.20479 08 03 08.28 +28 35 40.8 20.1 V G96 – Mt. Lemmon Survey MPS 280407
2009 01 26.21131 08 03 07.88 +28 35 43.3 19.8 V G96 – Mt. Lemmon Survey MPS 280407
2009 01 26.21777 08 03 07.48 +28 35 45.7 19.9 V G96 – Mt. Lemmon Survey MPS 280407
2009 02 03.19538 07 55 32.73 +29 23 09.5 20.3 V G96 – Mt. Lemmon Survey MPS 280407
2009 02 03.20089 07 55 32.41 +29 23 11.5 20.0 V G96 – Mt. Lemmon Survey MPS 280407
2009 02 03.20645 07 55 32.19 +29 23 13.1 20.0 V G96 – Mt. Lemmon Survey MPS 280407
2009 02 03.21348 07 55 31.72 +29 23 15.5 20.0 V G96 – Mt. Lemmon Survey MPS 280407
2011 06 12.58309 20 46 34.395 -22 23 23.86 19.8 z F51 – Pan-STARRS 1, Haleakala MPS 385366
2011 06 12.59403 20 46 34.388 -22 23 28.58 19.6 z F51 – Pan-STARRS 1, Haleakala MPS 385366
2011 08 01.38704 20 17 16.927 -30 05 30.57 19.3 r F51 – Pan-STARRS 1, Haleakala MPS 388023
2011 08 01.39675 20 17 16.360 -30 05 35.59 19.2 r F51 – Pan-STARRS 1, Haleakala MPS 388023
2011 08 01.41788 20 17 15.300 -30 05 48.64 21.1 g F51 – Pan-STARRS 1, Haleakala MPS 388023
2012 11 25.37604 05 35 10.346 +13 46 51.44 19.5 i F51 – Pan-STARRS 1, Haleakala MPS 444767
2012 11 25.37952 05 35 10.144 +13 46 52.15 19.4 i F51 – Pan-STARRS 1, Haleakala MPS 444767
2012 11 26.43802 05 34 12.54 +13 50 24.9 19.0 V G96 – Mt. Lemmon Survey MPS 444767
2012 11 26.44508 05 34 12.14 +13 50 26.2 19.3 V G96 – Mt. Lemmon Survey MPS 444767
2012 11 26.45218 05 34 11.71 +13 50 27.9 19.5 V G96 – Mt. Lemmon Survey MPS 444767
2012 11 26.45934 05 34 11.31 +13 50 29.1 19.2 V G96 – Mt. Lemmon Survey MPS 444767
2012 12 11.34986 05 19 14.98 +14 50 00.0 18.8 V G96 – Mt. Lemmon Survey MPS 447625
2012 12 11.35734 05 19 14.52 +14 50 02.0 18.8 V G96 – Mt. Lemmon Survey MPS 447625
2012 12 11.36499 05 19 14.01 +14 50 04.1 19.0 V G96 – Mt. Lemmon Survey MPS 447625
2012 12 11.37258 05 19 13.51 +14 50 06.0 19.0 V G96 – Mt. Lemmon Survey MPS 447625
2013 01 18.28436 04 49 19.38 +18 11 06.4 19.6 V G96 – Mt. Lemmon Survey MPS 452152
2013 01 18.29023 04 49 19.27 +18 11 08.1 19.9 V G96 – Mt. Lemmon Survey MPS 452152
2013 01 18.29611 04 49 19.16 +18 11 10.1 19.6 V G96 – Mt. Lemmon Survey MPS 452152
2013 01 18.30201 04 49 19.02 +18 11 12.2 19.7 V G96 – Mt. Lemmon Survey MPS 452152
2013 03 07.19116 05 04 57.39 +22 33 29.5 20.8 V G96 – Mt. Lemmon Survey MPS 459093
2013 03 07.19643 05 04 57.64 +22 33 31.4 21.2 V G96 – Mt. Lemmon Survey MPS 459093
2013 03 07.20181 05 04 57.97 +22 33 33.0 21.1 V G96 – Mt. Lemmon Survey MPS 459093
2013 03 07.21249 05 04 58.51 +22 33 36.1 20.6 V G96 – Mt. Lemmon Survey MPS 459093
2014 02 21.57896 12 06 08.536 +20 54 05.86 20.3 r F51 – Pan-STARRS 1, Haleakala MPS 503791
2014 02 21.58963 12 06 08.135 +20 54 11.73 20.2 r F51 – Pan-STARRS 1, Haleakala MPS 503791
2014 02 26.40397 12 02 56.98 +21 36 10.6 19.8 V 703 – Catalina Sky Survey MPS 503791
2014 02 26.40892 12 02 56.68 +21 36 15.1 20.7 V 703 – Catalina Sky Survey MPS 503791
2014 02 26.41387 12 02 56.35 +21 36 16.1 20.1 V 703 – Catalina Sky Survey MPS 503791
2014 02 26.41883 12 02 56.19 +21 36 19.6 20.6 V 703 – Catalina Sky Survey MPS 503791
2014 03 07.39187 11 56 03.34 +22 48 52.7 20.1 V G96 – Mt. Lemmon Survey MPS 505223
2014 03 07.39808 11 56 03.03 +22 48 55.7 20.4 V G96 – Mt. Lemmon Survey MPS 505223
2014 03 07.40430 11 56 02.71 +22 48 58.2 20.1 V G96 – Mt. Lemmon Survey MPS 505223
2014 03 07.41052 11 56 02.41 +22 49 01.2 20.3 V G96 – Mt. Lemmon Survey MPS 505223
2015 06 13.43482 17 00 36.418 -13 42 55.33 19.7 w F51 – Pan-STARRS 1, Haleakala MPS 612427
2015 06 13.46029 17 00 34.869 -13 43 01.00 19.7 w F51 – Pan-STARRS 1, Haleakala MPS 612427
2015 06 13.47294 17 00 34.101 -13 43 03.85 19.7 w F51 – Pan-STARRS 1, Haleakala MPS 612427
2015 06 15.34907 16 58 44.233 -13 50 17.91 19.8 w F51 – Pan-STARRS 1, Haleakala MPS 612427
2015 06 15.37411 16 58 42.717 -13 50 23.85 19.8 w F51 – Pan-STARRS 1, Haleakala MPS 612427
2015 06 15.38666 16 58 41.959 -13 50 26.88 19.7 w F51 – Pan-STARRS 1, Haleakala MPS 612427
2015 06 16.49268 16 57 37.322 -13 54 50.27 19.5 w F52 – Pan-STARRS 2, Haleakala MPS 612427
2015 06 16.50397 16 57 36.649 -13 54 52.91 19.8 w F52 – Pan-STARRS 2, Haleakala MPS 612427
2015 06 16.51530 16 57 35.967 -13 54 55.66 19.7 w F52 – Pan-STARRS 2, Haleakala MPS 612427
2015 06 16.52663 16 57 35.296 -13 54 58.29 19.6 w F52 – Pan-STARRS 2, Haleakala MPS 612427
2015 06 23.41030 16 51 08.557 -14 24 18.27 19.8 w F51 – Pan-STARRS 1, Haleakala MPS 613968
